GW5390 Weather Reports


Display with metric or nautical units.
time (UTC)temp
F
wind
direction
speed
MPH
gust
MPH
rain 1hr
in
rain 24hr
in
rain mn
in
humidity
%
barometer
mb
20260504172959 72 220 5.0 7.0 0.00 0.00 0.00 80 1017.0
20260504172454 72 155 4.0 6.0 0.00 0.00 0.00 80 1017.1
20260504171951 72 146 4.0 8.0 0.00 0.00 0.00 80 1017.2
20260504171448 71 189 1.0 2.0 0.00 0.00 0.00 80 1017.3
20260504170945 72 150 3.0 4.0 0.00 0.00 0.00 78 1017.4
20260504170441 72 220 2.0 2.0 0.00 0.00 0.00 78 1017.5
20260504160401 73 211 4.0 4.0 0.00 0.00 0.00 76 1018.2
20260504150825 71 181 0.0 0.0 0.00 0.00 0.00 78 1019.3
20260504150322 71 204 1.0 1.0 0.00 0.00 0.00 77 1019.1
20260504141252 74 195 4.0 4.0 0.00 0.00 0.00 72 1019.3
20260504140749 75 208 3.0 4.0 0.00 0.00 0.00 72 1019.4
20260504140244 75 288 2.0 3.0 0.00 0.00 0.00 73 1019.4
20260504130713 73 236 0.0 1.0 0.00 0.00 0.00 77 1020.0
20260504130209 71 198 0.0 1.0 0.00 0.00 0.00 79 1019.9
20260504120133 67 181 0.0 0.0 0.00 0.00 0.00 87 1019.9
20260504110600 64 182 0.0 0.0 0.00 0.00 0.00 92 1019.7
20260504100522 62 185 0.0 0.0 0.00 0.00 0.00 93 1019.2
20260504081915 62 177 0.0 0.0 0.00 0.00 0.00 92 1018.1
20260504081412 62 177 0.0 0.0 0.00 0.00 0.00 92 1018.2
20260504080908 62 177 0.0 0.0 0.00 0.00 0.00 92 1018.2
20260504080405 62 177 0.0 0.0 0.00 0.00 0.00 92 1018.1
20260504070332 62 181 0.0 0.0 0.00 0.00 0.00 92 1018.5
20260504050721 62 189 0.0 0.0 0.00 0.00 0.00 92 1019.5
20260504050218 62 189 0.0 0.0 0.00 0.00 0.00 92 1019.5
20260504045715 62 189 0.0 0.0 0.00 0.00 0.00 92 1019.6
20260504045215 62 189 0.0 0.0 0.00 0.00 0.00 92 1019.7
20260504044713 62 189 0.0 0.0 0.00 0.00 0.00 92 1019.7
20260504044210 62 189 0.0 0.0 0.00 0.00 0.00 92 1019.8
20260504043707 62 189 0.0 0.0 0.00 0.00 0.00 92 1019.7
20260504043204 62 189 0.0 0.0 0.00 0.00 0.00 92 1019.8
20260504042702 62 189 0.0 0.0 0.00 0.00 0.00 92 1019.9
20260504042158 62 189 0.0 0.0 0.00 0.00 0.00 92 1019.9
20260504041654 61 189 0.0 0.0 0.00 0.00 0.00 92 1020.1
20260504041150 61 189 0.0 0.0 0.00 0.00 0.00 92 1020.0
20260504040647 61 189 0.0 0.0 0.00 0.00 0.00 92 1020.2
20260504040144 61 189 0.0 0.0 0.00 0.00 0.00 92 1020.1
20260504035641 61 189 0.0 0.0 0.00 0.00 0.00 92 1020.1
20260504035137 61 189 0.0 0.0 0.00 0.00 0.00 92 1020.3
20260504034635 61 189 0.0 0.0 0.00 0.00 0.00 92 1020.0
20260504034132 61 189 0.0 0.0 0.00 0.00 0.00 92 1020.2
20260504033630 61 189 0.0 0.0 0.00 0.00 0.00 92 1020.2
20260504033127 61 189 0.0 0.0 0.00 0.00 0.00 92 1020.4
20260504032624 61 189 0.0 0.0 0.00 0.00 0.00 92 1020.4
20260504032120 60 189 0.0 0.0 0.00 0.00 0.00 92 1020.6
20260504031618 60 189 0.0 0.0 0.00 0.00 0.00 92 1020.6
20260504031114 61 189 0.0 0.0 0.00 0.00 0.00 92 1020.6
20260504030611 61 189 0.0 0.0 0.00 0.00 0.00 92 1020.9
20260504030108 60 189 0.0 0.0 0.00 0.00 0.00 91 1020.8
20260504025604 61 190 0.0 0.0 0.00 0.00 0.00 91 1020.7
20260504025101 61 190 0.0 0.0 0.00 0.00 0.00 91 1021.0
20260504024558 61 189 0.0 0.0 0.00 0.00 0.00 91 1021.0
20260504024055 61 189 0.0 0.0 0.00 0.00 0.00 91 1020.9
20260504023551 61 189 0.0 0.0 0.00 0.00 0.00 91 1020.8
20260504023047 61 189 0.0 0.0 0.00 0.00 0.00 91 1020.9
20260504022543 61 189 0.0 0.0 0.00 0.00 0.00 91 1021.1
20260504022040 61 189 0.0 0.0 0.00 0.00 0.00 91 1021.0
20260504021538 61 190 0.0 0.0 0.00 0.00 0.00 91 1021.0
20260504021034 61 189 0.0 0.0 0.00 0.00 0.00 91 1021.3
20260504020531 61 189 0.0 0.0 0.00 0.00 0.00 91 1021.2
20260504020028 61 189 0.0 0.0 0.00 0.00 0.00 90 1021.5
20260504015524 61 189 0.0 0.0 0.00 0.00 0.00 90 1021.3
20260504015020 61 189 0.0 0.0 0.00 0.00 0.00 90 1021.4
20260504014516 61 189 0.0 0.0 0.00 0.00 0.00 90 1021.4
20260504014014 61 189 0.0 0.0 0.00 0.00 0.00 90 1021.3
20260504013512 60 189 0.0 0.0 0.00 0.00 0.00 90 1021.5
20260504013009 61 189 0.0 0.0 0.00 0.00 0.00 90 1021.4
20260504012506 61 189 0.0 0.0 0.00 0.00 0.00 90 1021.3
20260504012004 61 189 0.0 0.0 0.00 0.00 0.00 89 1021.5
20260504011500 61 189 0.0 0.0 0.00 0.00 0.00 89 1021.5
20260504010955 61 189 0.0 0.0 0.00 0.00 0.00 89 1021.4
20260504010452 61 190 0.0 0.0 0.00 0.00 0.00 89 1021.5
20260504005948 61 189 0.0 0.0 0.00 0.00 0.00 89 1021.4
20260504005445 61 189 0.0 0.0 0.00 0.00 0.00 89 1021.5
20260504004942 62 189 0.0 0.0 0.00 0.00 0.00 88 1021.4
20260504004440 62 190 0.0 0.0 0.00 0.00 0.00 88 1021.7
20260504003937 61 189 0.0 0.0 0.00 0.00 0.00 88 1021.4
20260504003433 61 169 0.0 0.0 0.00 0.00 0.00 88 1021.5
20260504002930 61 193 0.0 0.0 0.00 0.00 0.00 88 1021.6
20260504002427 61 193 0.0 0.0 0.00 0.00 0.00 88 1021.5
20260504001924 62 194 0.0 0.0 0.00 0.00 0.00 88 1021.5
20260504001422 61 194 0.0 0.0 0.00 0.00 0.00 88 1021.4
20260504000918 61 194 0.0 0.0 0.00 0.00 0.00 88 1021.4
20260504000416 61 197 0.0 1.0 0.00 0.00 0.00 88 1021.4
20260503235912 61 188 0.0 1.0 0.00 0.00 0.00 88 1021.4
20260503235410 61 184 0.0 0.0 0.00 0.00 0.00 88 1021.6
20260503234908 61 182 0.0 0.0 0.00 0.00 0.00 87 1021.5
20260503234405 61 194 0.0 0.0 0.00 0.00 0.00 87 1021.6
20260503233903 61 193 0.0 0.0 0.00 0.00 0.00 87 1021.4
20260503233359 61 191 0.0 0.0 0.00 0.00 0.00 87 1021.5
20260503232855 61 196 0.0 0.0 0.00 0.00 0.00 87 1021.5
20260503232353 61 199 0.0 0.0 0.00 0.00 0.00 87 1021.6
20260503231850 61 179 0.0 0.0 0.00 0.00 0.00 87 1021.5
20260503231347 61 179 0.0 0.0 0.00 0.00 0.00 87 1021.6
20260503230843 60 179 0.0 0.0 0.00 0.00 0.00 86 1021.5
20260503230340 60 179 0.0 0.0 0.00 0.00 0.00 86 1021.5
20260503225838 60 179 0.0 0.0 0.00 0.00 0.00 86 1021.5
20260503225334 60 179 0.0 0.0 0.00 0.00 0.00 85 1021.6
20260503224830 60 179 0.0 0.0 0.00 0.00 0.00 85 1021.4
20260503224327 60 179 0.0 0.0 0.00 0.00 0.00 85 1021.2
20260503223825 60 179 0.0 0.0 0.00 0.00 0.00 84 1021.3
20260503223323 60 179 0.0 0.0 0.00 0.00 0.00 84 1021.3
20260503222818 60 179 0.0 0.0 0.00 0.00 0.00 84 1021.4
20260503222317 60 179 0.0 0.0 0.00 0.00 0.00 84 1021.2
20260503221815 61 179 0.0 0.0 0.00 0.00 0.00 83 1021.1
20260503221313 61 179 0.0 0.0 0.00 0.00 0.00 83 1021.2
20260503220809 61 179 0.0 0.0 0.00 0.00 0.00 83 1021.5
20260503220306 61 179 0.0 0.0 0.00 0.00 0.00 83 1021.2
20260503215802 61 179 0.0 0.0 0.00 0.00 0.00 82 1021.3
20260503215259 61 179 0.0 0.0 0.00 0.00 0.00 82 1021.3
20260503214757 61 179 0.0 0.0 0.00 0.00 0.00 81 1021.2
20260503214254 61 179 0.0 0.0 0.00 0.00 0.00 81 1021.2
20260503213752 61 179 0.0 0.0 0.00 0.00 0.00 81 1020.9
20260503213249 62 179 0.0 0.0 0.00 0.00 0.00 81 1021.0
20260503212746 62 179 0.0 0.0 0.00 0.00 0.00 80 1021.0
20260503212243 62 179 0.0 0.0 0.00 0.00 0.00 79 1021.1
20260503211741 62 179 0.0 0.0 0.00 0.00 0.00 79 1021.1
20260503211237 62 179 0.0 0.0 0.00 0.00 0.00 79 1021.2
20260503210732 62 179 0.0 0.0 0.00 0.00 0.00 78 1021.0
20260503210230 62 179 0.0 0.0 0.00 0.00 0.00 77 1021.1
20260503205725 62 179 0.0 0.0 0.00 0.00 0.00 77 1020.9
20260503205222 62 179 0.0 0.0 0.00 0.00 0.00 76 1021.1
20260503204718 62 179 0.0 0.0 0.00 0.00 0.00 76 1021.0
20260503204216 63 179 0.0 0.0 0.00 0.00 0.00 76 1020.9
20260503203713 63 179 0.0 0.0 0.00 0.00 0.00 75 1020.8
20260503203211 64 179 0.0 0.0 0.00 0.00 0.00 75 1021.1
20260503202708 65 179 0.0 0.0 0.00 0.00 0.00 75 1021.0
20260503202206 64 178 0.0 0.0 0.00 0.00 0.00 75 1021.0
20260503201703 65 180 0.0 0.0 0.00 0.00 0.00 75 1020.9
20260503201200 65 179 0.0 0.0 0.00 0.00 0.00 74 1020.8
20260503200656 65 174 0.0 1.0 0.00 0.00 0.00 74 1020.8
20260503200153 65 174 0.0 0.0 0.00 0.00 0.00 74 1021.0
20260503195650 65 174 0.0 0.0 0.00 0.00 0.00 74 1021.0
20260503195147 65 165 0.0 0.0 0.00 0.00 0.00 73 1021.0
20260503194644 66 159 1.0 1.0 0.00 0.00 0.00 73 1020.8
20260503194139 66 177 0.0 0.0 0.00 0.00 0.00 73 1021.0
20260503193637 66 167 0.0 1.0 0.00 0.00 0.00 73 1020.9
20260503193132 66 173 0.0 0.0 0.00 0.00 0.00 72 1020.9
20260503192628 67 176 0.0 0.0 0.00 0.00 0.00 73 1020.6
20260503192124 67 177 0.0 0.0 0.00 0.00 0.00 72 1021.0
20260503191621 67 164 1.0 1.0 0.00 0.00 0.00 70 1020.8
20260503191118 67 169 0.0 1.0 0.00 0.00 0.00 70 1021.0
20260503190615 67 176 0.0 0.0 0.00 0.00 0.00 70 1020.9
20260503190112 67 172 0.0 1.0 0.00 0.00 0.00 69 1021.0
20260503185608 67 179 0.0 0.0 0.00 0.00 0.00 70 1020.9
20260503185108 67 182 0.0 0.0 0.00 0.00 0.00 69 1020.9
20260503184604 67 181 0.0 0.0 0.00 0.00 0.00 67 1020.9
20260503184100 67 171 0.0 0.0 0.00 0.00 0.00 67 1020.9
20260503183557 68 167 0.0 1.0 0.00 0.00 0.00 65 1020.9
20260503183054 69 172 1.0 1.0 0.00 0.00 0.00 63 1020.9
20260503182553 71 192 0.0 0.0 0.00 0.00 0.00 61 1021.0
20260503182050 71 190 0.0 1.0 0.00 0.00 0.00 60 1021.0
20260503181547 71 187 0.0 1.0 0.00 0.00 0.00 56 1021.1
20260503181043 72 181 0.0 0.0 0.00 0.00 0.00 57 1021.0
20260503180541 72 181 0.0 0.0 0.00 0.00 0.00 53 1021.0
20260503180038 71 192 0.0 0.0 0.00 0.00 0.00 61 1021.1
20260503175535 70 193 1.0 1.0 0.00 0.00 0.00 58 1020.9
20260503175033 70 194 0.0 0.0 0.00 0.00 0.00 60 1021.0
20260503174530 71 239 1.0 2.0 0.00 0.00 0.00 63 1021.0
20260503174026 71 185 0.0 1.0 0.00 0.00 0.00 57 1021.1
20260503173521 70 194 0.0 0.0 0.00 0.00 0.00 59 1021.0